This demonstration page uses our WeatherBlox Daily Observations layout. Learn more.

Left ArrowRight Arrow

Hourly Observations for March 23, 2020

Temp ( °F °C ) Dew Point ( °F °C ) Humidity (%) Winds ( mph kmh ) Pressure ( in mb ) Visibility ( mi km ) Precip ( " mm )
12:54 am 00:54 Cloudy 43 6.1 38 3.3 82 82 SSE 5 7 30.12 1020 10 16.0934 0 0
1:54 am 01:54 Cloudy 43 6.1 39 3.9 86 86 SSE 6 9 30.12 1020 10 16.0934 0 0
2:50 am 02:50 Cloudy 43 6 39 4 87 87 SE 5 7 30.13 1020 10 16.0934 0 0
2:54 am 02:54 Cloudy 43 6.1 39 3.9 86 86 SE 5 7 30.11 1020 10 16.0934 0 0
3:13 am 03:13 Cloudy 43 6.1 39 3.9 86 86 S 5 7 30.13 1020 10 16.0934 0 0
3:36 am 03:36 Cloudy 43 6.1 39 3.9 86 86 SSE 7 11 30.12 1020 10 16.0934 0 0
3:54 am 03:54 Cloudy 42 5.6 39 3.9 89 89 SSE 6 9 30.1 1019 10 16.0934 0 0
4:54 am 04:54 Cloudy 42 5.6 39 3.9 89 89 SSE 6 9 30.11 1020 10 16.0934 0 0
5:54 am 05:54 Cloudy 42 5.6 39 3.9 89 89 SE 5 7 30.11 1020 10 16.0934 0 0
6:04 am 06:04 Cloudy 42 5.6 39 3.9 89 89 SSE 3 6 30.13 1020 10 16.0934 0 0
6:26 am 06:26 Cloudy 42 5.6 39 3.9 89 89 Calm 30.14 1021 10 16.0934 0 0
6:54 am 06:54 Cloudy 42 5.6 38 3.3 85 85 Calm 30.13 1020 10 16.0934 0 0
7:20 am 07:20 Cloudy 42 5.6 39 3.9 89 89 SSE 5 7 30.15 1021 10 16.0934 0 0
7:54 am 07:54 Cloudy 42 5.6 39 3.9 89 89 S 5 7 30.14 1021 10 16.0934 0 0
8:54 am 08:54 Cloudy with Mist and Fog 42 5.6 40 4.4 92 92 SE 10 17 30.14 1021 4 6.43736 0 0
9:12 am 09:12 Cloudy 43 6.1 40 4.4 89 89 ESE 9 15 30.15 1021 8 12.87472 0 0
9:36 am 09:36 Cloudy 43 6.1 40 4.4 89 89 ESE 8 13 30.15 1021 10 16.0934 0 0
9:54 am 09:54 Cloudy 44 6.7 40 4.4 85 85 SE 7 11 30.14 1021 10 16.0934 0 0
10:54 am 10:54 Cloudy 45 7.2 40 4.4 83 83 ESE 7 11 30.14 1021 10 16.0934 0 0
11:54 am 11:54 Cloudy 45 7.2 41 5 86 86 SE 7 11 30.14 1021 7 11.26538 0 0
12:54 pm 12:54 Cloudy with Haze 47 8.3 42 5.6 83 83 SE 9 15 30.13 1020 6 9.65604 0 0
1:54 pm 13:54 Cloudy with Haze 48 8.9 43 6.1 83 83 SSE 10 17 30.11 1020 6 9.65604 0 0
2:54 pm 14:54 Cloudy 49 9.4 44 6.7 83 83 S 8 13 30.07 1018 9 14.48406 0 0
3:54 pm 15:54 Cloudy 50 10 44 6.7 80 80 S 8 13 30.05 1018 10 16.0934 0 0
4:46 pm 16:46 Cloudy 51 10.6 44 6.7 77 77 SE 6 9 30.04 1017 10 16.0934 0 0
4:54 pm 16:54 Cloudy 51 10.6 44 6.7 77 77 SE 7 11 30.03 1017 10 16.0934 0 0
5:26 pm 17:26 Cloudy 52 11.1 44 6.7 75 75 E 8 13 30.02 1016 10 16.0934 0 0
5:39 pm 17:39 Cloudy 52 11.1 44 6.7 75 75 E 7 11 30.02 1016 10 16.0934 0 0
5:54 pm 17:54 Cloudy 52 11.1 44 6.7 75 75 E 8 13 30.01 1016 10 16.0934 0 0
6:17 pm 18:17 Cloudy 52 11.1 44 6.7 75 75 E 10 17 30.01 1016 10 16.0934 0 0
6:45 pm 18:45 Cloudy 51 10.6 44 6.7 77 77 E 8 13 30 1016 10 16.0934 0 0
6:54 pm 18:54 Cloudy 51 10.6 44 6.7 77 77 E 7 11 30 1016 10 16.0934 0 0
7:11 pm 19:11 Cloudy 51 10.6 44 6.7 77 77 E 9 15 30 1016 10 16.0934 0 0
7:36 pm 19:36 Cloudy 51 10.6 44 6.7 77 77 ESE 8 13 30 1016 10 16.0934 0 0
7:54 pm 19:54 Cloudy 51 10.6 44 6.7 77 77 SE 12 19 30 1016 10 16.0934 0 0
8:54 pm 20:54 Cloudy 50 10 43 6.1 77 77 SSE 12 19 30.02 1017 10 16.0934 0 0
9:18 pm 21:18 Partly Cloudy 49 9.4 42 5.6 77 77 SSE 10 17 30.02 1017 10 16.0934 0 0
9:54 pm 21:54 Mostly Clear 48 8.9 42 5.6 80 80 SE 7 11 30.04 1017 10 16.0934 0 0
10:30 pm 22:30 Mostly Cloudy 48 8.9 42 5.6 80 80 SE 8 13 30.04 1017 10 16.0934 0 0
10:54 pm 22:54 Partly Cloudy 48 8.9 42 5.6 80 80 SE 8 13 30.03 1017 10 16.0934 0 0
11:39 pm 23:39 Mostly Cloudy 47 8.3 42 5.6 83 83 SSE 12 19 30.03 1017 10 16.0934 0 0
11:54 pm 23:54 Cloudy 47 8.3 42 5.6 83 83 SSE 13 20 30.01 1016 10 16.0934 0 0

Powered by AerisWeather